Manitowoc, WI

4:34 PM CDT on March 29, 2017 (GMT -0500)
Manitowoc County

Weather History for KMTW - December, 2013

Change the Weather History Date:

Sunday, December 1, 2013

  Actual Average Record
Temperature  
Mean Temperature 32 °F -  
Max Temperature 39 °F 36 °F 60 °F (1970)
Min Temperature 24 °F 23 °F 0 °F (1976)
Degree Days  
Heating Degree Days 34    
Moisture  
Dew Point 27 °F    
Average Humidity 83    
Maximum Humidity 92    
Minimum Humidity 62    
Precipitation  
Precipitation 0.00 in - - ()
Sea Level Pressure  
Sea Level Pressure 30.15 in    
Wind  
Wind Speed 5 mph (NNW)    
Max Wind Speed 9 mph    
Max Gust Speed -    
Visibility 8 miles    
Events      
Averages and records for this station are not official NWS values.
T = Trace of Precipitation, MM = Missing Value Source: NWS Daily Summary

Daily Weather History Graph

Daily Weather History Graph

Search for Another Location

Airport or City:

Trip Planner

Search our weather history database for the weather conditions in past years. The results will help you decide how hot, cold, wet, or windy it might be!

Date:

Astronomy

Dec. 01, 2013 Rise Set
Actual Time 7:06 AM CST 4:13 PM CST
Civil Twilight 6:33 AM CST 4:45 PM CST
Nautical Twilight 5:57 AM CST 5:22 PM CST
Astronomical Twilight 5:22 AM CST 5:56 PM CST
Moon 5:21 AM CST (12/1) 3:25 PM CST (12/1)
Length of Visible Light 10h 12m
Length of Day
9h 07m
Waning Crescent, 2% of the Moon is Illuminated
Dec 1
Waning Crescent
Dec 2
New
Dec 9
First Quarter
Dec 17
Full
Dec 25
Last Quarter

Hourly Weather History & Observations

Time (CST) Temp. Windchill Dew Point Humidity Pressure Visibility Wind Dir Wind Speed Gust Speed Precip Events Conditions
12:56 AM 33.1 °F 27.7 °F 28.0 °F 82% 30.14 in 9.0 mi North 5.8 mph - N/A   Overcast
1:56 AM 32.0 °F 25.6 °F 28.0 °F 85% 30.15 in 9.0 mi North 6.9 mph - N/A   Mostly Cloudy
2:56 AM 30.0 °F 25.2 °F 27.0 °F 88% 30.15 in 8.0 mi NNW 4.6 mph - N/A   Clear
3:56 AM 28.9 °F 22.8 °F 27.0 °F 92% 30.17 in 7.0 mi NNW 5.8 mph - N/A   Clear
4:56 AM 28.9 °F 22.8 °F 26.1 °F 89% 30.17 in 7.0 mi NNW 5.8 mph - N/A   Mostly Cloudy
5:56 AM 28.9 °F 23.9 °F 26.1 °F 89% 30.18 in 7.0 mi NNW 4.6 mph - N/A   Overcast
6:56 AM 28.9 °F 22.8 °F 26.1 °F 89% 30.18 in 7.0 mi NNW 5.8 mph - N/A   Mostly Cloudy
7:56 AM 28.9 °F 22.8 °F 27.0 °F 92% 30.19 in 6.0 mi NNW 5.8 mph - N/A   Clear
8:56 AM 34.0 °F 26.6 °F 28.9 °F 82% 30.20 in 8.0 mi North 9.2 mph - N/A   Partly Cloudy
9:56 AM 36.0 °F 29.6 °F 30.0 °F 79% 30.20 in 9.0 mi North 8.1 mph - N/A   Clear
10:56 AM 37.9 °F 32.7 °F 30.0 °F 73% 30.18 in 10.0 mi North 6.9 mph - N/A   Clear
11:56 AM 39.0 °F 34.0 °F 27.0 °F 62% 30.17 in 10.0 mi North 6.9 mph - N/A   Partly Cloudy
12:56 PM 39.0 °F 34.0 °F 27.0 °F 62% 30.16 in 10.0 mi NNE 6.9 mph - N/A   Overcast
1:56 PM 37.9 °F 32.1 °F 28.0 °F 68% 30.14 in 10.0 mi North 8.1 mph - N/A   Overcast
2:56 PM 36.0 °F 29.6 °F 28.9 °F 76% 30.14 in 10.0 mi North 8.1 mph - N/A   Overcast
3:56 PM 35.1 °F 29.3 °F 28.9 °F 78% 30.13 in 10.0 mi North 6.9 mph - N/A   Partly Cloudy
4:56 PM 33.1 °F 28.7 °F 28.9 °F 85% 30.13 in 10.0 mi North 4.6 mph - N/A   Clear
5:56 PM 28.9 °F 25.2 °F 26.1 °F 89% 30.13 in 8.0 mi WSW 3.5 mph - N/A   Clear
6:56 PM 26.1 °F - 24.1 °F 92% 30.14 in 6.0 mi Calm Calm - N/A   Clear
7:56 PM 24.1 °F - 21.0 °F 88% 30.13 in 5.0 mi Calm Calm - N/A   Clear
8:56 PM 26.1 °F - 23.0 °F 88% 30.12 in 7.0 mi Calm Calm - N/A   Overcast
9:56 PM 26.1 °F - 24.1 °F 92% 30.10 in 6.0 mi Calm Calm - N/A   Overcast
10:56 PM 27.0 °F - 25.0 °F 92% 30.09 in 7.0 mi Calm Calm - N/A   Overcast
11:56 PM 27.0 °F - 25.0 °F 92% 30.07 in 7.0 mi Calm Calm - N/A   Overcast